Date String (YYYY-MM-DD hh:mm:ss) UTC,Instrument flags,absolute air pressure of the measurement (hPa),sample flow rate (lpm),inlet stack bypass flow (lpm),air temperature of the measurement (°C),ambient temperature measured by the external sensor (°C),aerosol sample conditioner tube jacket temperature (°C),OPC LED temperature (°C),internal box temperature (°C),relative humidity of the measurement (%),span deviation,mass concentration of particles derived from Lorenz-Mie calculation of OPC scattering (μg/m³),mass concentration of particles derived from Lorenz-Mie calculation of OPC scattering (μg/m³),mass concentration of particles derived from Lorenz-Mie calculation of OPC scattering (μg/m³)
DateTimeUTC,F1_M11,P_M11,Q1_M11,Q2_M11,T1_M11,T2_M11,T3_M11,T4_M11,T5_M11,U1_M11,ZSPAN_M11,X0_M11,X2_M11,X1_M11
2023-12-05 14:00:00,SystemResetWarning,0835.1,5.00,000.00,020.5,019.7,000.0,028.8,021.8,20.2,0000.0,0005.37,0002.80,0002.30
2023-12-05 14:01:00,SystemResetWarning,0835.1,5.00,000.00,020.5,019.7,000.0,028.8,021.8,20.3,0000.0,0005.58,0002.91,0002.40
2023-12-05 14:02:00,SystemResetWarning,0835.1,5.00,000.00,020.5,019.7,000.0,028.8,021.8,20.5,0000.0,0005.68,0003.01,0002.52
2023-12-05 14:03:00,SystemResetWarning,0835.1,5.00,000.00,020.5,019.7,000.0,028.8,021.7,20.6,0000.0,0005.66,0003.09,0002.61
2023-12-05 14:04:00,SystemResetWarning,0835.1,5.00,000.00,020.5,019.7,000.0,028.8,021.7,20.5,0000.0,0005.64,0003.11,0002.67
2023-12-05 14:05:00,SystemResetWarning,0835.0,4.99,000.00,020.5,019.7,000.0,028.8,021.7,20.5,0000.0,0005.53,0003.12,0002.74
2023-12-05 14:06:00,SystemResetWarning,0835.0,5.00,000.00,020.5,019.7,000.0,028.8,021.8,20.6,0000.0,0005.27,0003.17,0002.83
2023-12-05 14:07:00,SystemResetWarning,0835.1,5.00,000.00,020.5,019.7,000.0,028.8,021.8,20.7,0000.0,0005.01,0003.20,0002.92
2023-12-05 14:08:00,SystemResetWarning,0835.2,4.99,000.00,020.5,019.7,000.0,028.8,021.8,20.7,0000.0,0005.45,0003.21,0002.96
2023-12-05 14:09:00,SystemResetWarning,0835.2,5.00,000.00,020.5,019.7,000.0,028.8,021.8,20.7,0000.0,0004.90,0003.21,0002.97
2023-12-05 14:10:00,SystemResetWarning,0835.2,5.00,000.00,020.5,019.7,000.0,028.8,021.8,20.8,0000.0,0004.75,0003.19,0002.96
2023-12-05 14:11:00,SystemResetWarning,0835.1,5.00,000.00,020.5,019.6,000.0,028.8,021.8,20.8,0000.0,0004.83,0003.21,0002.96
2023-12-05 14:12:00,SystemResetWarning,0835.1,5.00,000.00,020.5,019.7,000.0,028.8,021.8,20.8,0000.0,0005.03,0003.22,0002.97
2023-12-05 14:13:00,SystemResetWarning,0835.2,5.00,000.00,020.5,019.7,000.0,028.8,021.8,20.7,0000.0,0006.21,0003.24,0002.98
2023-12-05 14:14:00,SystemResetWarning,0835.3,5.00,000.00,020.5,019.7,000.0,028.8,021.7,20.8,0000.0,0007.03,0003.26,0002.98
2023-12-05 14:15:00,SystemResetWarning,0835.2,4.99,000.00,020.5,019.7,000.0,028.8,021.8,20.9,0000.0,0007.04,0003.26,0002.97
2023-12-05 14:16:00,SystemResetWarning,0835.2,5.00,000.00,020.5,019.7,000.0,028.8,021.8,20.9,0000.0,0007.05,0003.26,0002.95
2023-12-05 14:17:00,SystemResetWarning,0835.2,5.00,000.00,020.5,019.7,000.0,028.8,021.7,20.9,0000.0,0007.01,0003.25,0002.94
2023-12-05 14:18:00,SystemResetWarning,0835.1,4.99,000.00,020.5,019.7,000.0,028.8,021.7,20.8,0000.0,0006.94,0003.25,0002.94
2023-12-05 14:19:00,SystemResetWarning,0835.1,4.99,000.00,020.5,019.6,000.0,028.8,021.7,20.5,0000.0,0006.36,0003.28,0002.95
2023-12-05 14:20:00,SystemResetWarning,0835.1,5.01,000.00,020.5,019.6,000.0,028.8,021.7,20.6,0000.0,0006.34,0003.28,0002.96
2023-12-05 14:21:00,SystemResetWarning,0835.1,5.00,000.00,020.5,019.6,000.0,028.8,021.7,20.7,0000.0,0006.25,0003.29,0002.95
2023-12-05 14:22:00,SystemResetWarning,0835.1,5.01,000.00,020.5,019.6,000.0,028.8,021.7,20.7,0000.0,0006.89,0003.26,0002.91
2023-12-05 14:23:00,SystemResetWarning,0835.1,5.00,000.00,020.5,019.6,000.0,028.8,021.7,20.8,0000.0,0006.67,0003.26,0002.90
2023-12-05 14:24:00,SystemResetWarning,0835.1,4.99,000.00,020.5,019.6,000.0,028.8,021.7,20.4,0000.0,0005.38,0003.25,0002.89
2023-12-05 14:25:00,SystemResetWarning,0835.1,5.00,000.00,020.4,019.6,000.0,028.8,021.7,19.8,0000.0,0004.61,0003.22,0002.89
2023-12-05 14:26:00,SystemResetWarning,0835.1,4.99,000.00,020.4,019.5,000.0,028.8,021.7,19.8,0000.0,0005.36,0003.20,0002.86
2023-12-05 14:27:00,SystemResetWarning,0835.1,4.99,000.00,020.4,019.6,000.0,028.8,021.7,20.1,0000.0,0005.77,0003.21,0002.81
2023-12-05 14:28:00,SystemResetWarning,0835.2,5.00,000.00,020.4,019.6,000.0,028.8,021.7,20.3,0000.0,0006.32,0003.20,0002.74
2023-12-05 14:29:00,SystemResetWarning,0835.1,5.01,000.00,020.4,019.6,000.0,028.8,021.7,20.4,0000.0,0006.33,0003.18,0002.70
2023-12-05 14:30:00,SystemResetWarning,0835.0,5.00,000.00,020.4,019.6,000.0,028.8,021.7,20.3,0000.0,0006.26,0003.15,0002.67
2023-12-05 14:31:00,SystemResetWarning,0835.0,5.01,000.00,020.4,019.6,000.0,028.8,021.7,20.0,0000.0,0006.52,0003.14,0002.62
2023-12-05 14:32:00,SystemResetWarning,0835.0,5.00,000.00,020.4,019.6,000.0,028.8,021.7,20.0,0000.0,0006.92,0003.11,0002.59
2023-12-05 14:33:00,SystemResetWarning,0835.1,5.00,000.00,020.4,019.6,000.0,028.8,021.7,20.1,0000.0,0006.69,0003.04,0002.51
2023-12-05 14:34:00,SystemResetWarning,0835.1,4.99,000.00,020.5,019.6,000.0,028.8,021.7,20.2,0000.0,0007.72,0002.92,0002.41
2023-12-05 14:35:00,SystemResetWarning,0835.1,5.00,000.00,020.5,019.7,000.0,028.8,021.7,20.4,0000.0,0007.91,0002.83,0002.32
2023-12-05 14:36:00,SystemResetWarning,0835.1,5.00,000.00,020.5,019.7,000.0,028.8,021.7,20.3,0000.0,0007.92,0002.79,0002.24
2023-12-05 14:37:00,SystemResetWarning,0835.1,5.00,000.00,020.5,019.7,000.0,028.8,021.8,20.0,0000.0,0007.69,0002.79,0002.20
2023-12-05 14:38:00,SystemResetWarning,0835.1,4.99,000.00,020.5,019.7,000.0,028.8,021.8,19.8,0000.0,0007.39,0002.75,0002.19
2023-12-05 14:39:00,SystemResetWarning,0835.0,5.00,000.00,020.5,019.7,000.0,028.8,021.8,19.6,0000.0,0007.12,0002.73,0002.20
2023-12-05 14:40:00,SystemResetWarning,0835.0,5.01,000.00,020.5,019.7,000.0,028.8,021.7,19.3,0000.0,0007.03,0002.71,0002.18
2023-12-05 14:41:00,SystemResetWarning,0835.0,5.00,000.00,020.5,019.7,000.0,028.8,021.8,18.8,0000.0,0007.24,0002.75,0002.15
2023-12-05 14:42:00,SystemResetWarning,0835.0,4.99,000.00,020.5,019.7,000.0,028.8,021.8,18.6,0000.0,0006.97,0002.71,0002.13
2023-12-05 14:43:00,SystemResetWarning,0835.0,4.99,000.00,020.5,019.7,000.0,028.8,021.8,18.3,0000.0,0006.54,0002.68,0002.11
2023-12-05 14:44:00,SystemResetWarning,0834.9,5.00,000.00,020.5,019.7,000.0,028.8,021.8,18.2,0000.0,0007.04,0002.72,0002.15
2023-12-05 14:45:00,SystemResetWarning,0835.0,5.00,000.00,020.5,019.7,000.0,028.8,021.8,18.1,0000.0,0006.15,0002.75,0002.19
2023-12-05 14:46:00,SystemResetWarning,0835.0,5.01,000.00,020.5,019.6,000.0,028.8,021.8,17.6,0000.0,0005.53,0002.76,0002.22
2023-12-05 14:47:00,SystemResetWarning,0835.0,5.01,000.00,020.5,019.6,000.0,028.8,021.7,17.2,0000.0,0005.51,0002.75,0002.22
2023-12-05 14:48:00,SystemResetWarning,0834.9,5.00,000.00,020.5,019.6,000.0,028.8,021.7,17.3,0000.0,0005.52,0002.73,0002.19
2023-12-05 14:49:00,SystemResetWarning,0835.1,5.00,000.00,020.5,019.6,000.0,028.8,021.7,17.3,0000.0,0005.44,0002.63,0002.12
2023-12-05 14:50:00,SystemResetWarning,0834.9,5.00,000.00,020.4,019.5,000.0,028.8,021.7,16.9,0000.0,0005.13,0002.52,0002.04
2023-12-05 14:51:00,SystemResetWarning,0835.0,4.99,000.00,020.4,019.5,000.0,028.8,021.7,16.9,0000.0,0004.98,0002.42,0001.97
2023-12-05 14:52:00,SystemResetWarning,0835.0,4.99,000.00,020.4,019.5,000.0,028.8,021.7,17.1,0000.0,0004.62,0002.22,0001.86
2023-12-05 14:53:00,SystemResetWarning,0835.0,5.01,000.00,020.4,019.5,000.0,028.8,021.7,17.4,0000.0,0004.54,0002.10,0001.75
2023-12-05 14:54:00,SystemResetWarning,0835.0,5.02,000.00,020.4,019.5,000.0,028.8,021.7,17.2,0000.0,0004.86,0001.94,0001.62
2023-12-05 14:55:00,SystemResetWarning,0835.0,5.01,000.00,020.4,019.5,000.0,028.8,021.7,17.6,0000.0,0005.46,0001.81,0001.49
2023-12-05 14:56:00,SystemResetWarning,0835.1,5.01,000.00,020.4,019.5,000.0,028.8,021.6,17.5,0000.0,0005.03,0001.67,0001.35
2023-12-05 14:57:00,SystemResetWarning,0835.1,4.99,000.00,020.4,019.6,000.0,028.8,021.7,17.9,0000.0,0005.44,0001.54,0001.22
2023-12-05 14:58:00,SystemResetWarning,0835.1,5.00,000.00,020.4,019.6,000.0,028.8,021.7,18.0,0000.0,0005.20,0001.36,0001.08
2023-12-05 14:59:00,SystemResetWarning,0835.1,4.99,000.00,020.5,019.6,000.0,028.8,021.8,18.4,0000.0,0004.97,0001.20,0000.95
